This is the latest recevied weather packets stored in our database for station/object G4MDP-13. If no packets are shown the sender has not sent any weather packets the latest 10 day(s).
| Time | Temp. | Humidity | Pressure | Rain* | Wind** | Luminosity | Snow |
|---|---|---|---|---|---|---|---|
| 1777983557 | 17.78° C | 49% | 1005.4 hPa | 0 mm | - | - | - |
| 1777982717 | 18.89° C | 47% | 1005.6 hPa | 0 mm | - | - | - |
| 1777982660 | 18.33° C | 47% | 1005.6 hPa | 0 mm | - | - | - |
| 1777982658 | 18.33° C | 47% | 1005.6 hPa | 0 mm | - | - | - |
| 1777981758 | 16.11° C | 52% | 1005.8 hPa | 0 mm | - | - | - |
| 1777981757 | 16.11° C | 52% | 1005.8 hPa | 0 mm | - | - | - |
| 1777980917 | 16.11° C | 54% | 1005.6 hPa | 0 mm | - | - | - |
| 1777980860 | 16.11° C | 54% | 1005.6 hPa | 0 mm | - | - | - |
| 1777980858 | 16.11° C | 54% | 1005.6 hPa | 0 mm | - | - | - |
| 1777979958 | 15.56° C | 58% | 1005.8 hPa | 0 mm | - | - | - |
| 1777979957 | 15.56° C | 58% | 1005.8 hPa | 0 mm | - | - | - |
| 1777979117 | 15.56° C | 58% | 1005.9 hPa | 0 mm | - | - | - |
| 1777979058 | 15.56° C | 58% | 1006 hPa | 0 mm | - | - | - |
| 1777979057 | 15.56° C | 58% | 1006 hPa | 0 mm | - | - | - |
| 1777978158 | 15° C | 59% | 1005.7 hPa | 0 mm | - | - | - |
| 1777978157 | 15° C | 59% | 1005.7 hPa | 0 mm | - | - | - |
| 1777977317 | 16.11° C | 58% | 1005.9 hPa | 0 mm | - | - | - |
| 1777977258 | 15.56° C | 58% | 1005.8 hPa | 0 mm | - | - | - |
| 1777977257 | 15.56° C | 58% | 1005.8 hPa | 0 mm | - | - | - |
| 1777976358 | 15.56° C | 61% | 1005.8 hPa | 0 mm | - | - | - |
| 1777976357 | 15.56° C | 61% | 1005.8 hPa | 0 mm | - | - | - |
| 1777975878 | 15.56° C | 61% | 1005.6 hPa | 0 mm | - | - | - |
| 1777975877 | 15.56° C | 61% | 1005.6 hPa | 0 mm | - | - | - |
| 1777975638 | 15.56° C | 59% | 1005.7 hPa | 0 mm | - | - | - |
| 1777975637 | 15.56° C | 59% | 1005.7 hPa | 0 mm | - | - | - |
* Rain latest hour (hover to see other rain measurements)
** Current wind speed in m/s (hover to see current wind gust speed)